Vorticity
3 11 10 6 8 8 8 9 7 8 -6 17 6 6 3 7 10 7 13 19 23 25 16 3 9 6 2 4 -0 2 10 7 5 4 0 0 -0 0 4 -2 6 7 9 8
8 6 4 4 5 6 6 7 5 23 -5 25 5 5 4 6 16 12 12 26 27 19 19 6 6 2 -6 3 23 19 7 3 3 4 2 -1 -1 3 -2 8 9 10 10 11
3 6 7 3 2 7 11 10 3 7 10 6 14 4 -1 3 18 16 23 26 24 21 4 8 -2 2 -11 6 -7 14 13 12 8 6 2 2 -0 4 8 11 9 10 11 11
8 3 3 6 6 8 20 -8 8 9 17 15 8 3 -1 10 10 17 15 22 17 8 4 8 6 -12 -0 2 -9 18 8 8 6 4 -1 -1 10 8 11 10 10 11 12 11
-5 9 12 6 6 12 3 3 17 18 15 7 -4 14 1 1 3 13 11 10 11 6 3 1 -1 4 16 -6 18 7 6 6 0 3 9 9 11 9 9 10 11 11 11 13
14 7 10 4 21 14 6 19 24 17 10 5 4 16 -4 11 5 6 12 11 17 8 15 7 -2 13 -3 5 5 3 3 7 9 10 10 9 11 12 12 12 12 12 12 12
16 9 14 -7 29 16 14 23 20 14 5 18 10 9 6 8 8 12 6 9 4 7 13 15 3 0 4 4 7 9 10 11 9 11 12 13 12 12 13 13 12 11 11 12
-0 7 16 7 8 15 6 10 18 12 10 13 14 14 -0 10 9 12 11 9 8 8 6 6 5 5 9 9 11 10 9 12 13 13 13 12 12 11 11 10 10 10 9 9
9 3 13 1 4 29 14 8 17 9 10 12 12 8 -5 10 11 10 10 10 7 6 5 7 9 9 10 9 10 11 13 13 12 13 13 14 12 10 9 9 5 5 6 8
9 19 3 6 15 -0 6 22 19 9 8 8 2 -12 15 4 9 10 9 6 5 6 8 8 8 8 9 11 11 11 11 12 12 11 9 8 7 7 2 10 19 21 22 26
29 14 4 16 -1 5 19 5 23 10 11 10 15 2 6 13 13 8 6 6 7 8 8 7 8 10 11 11 10 12 12 11 10 9 5 6 2 9 21 23 29 40 42 37
19 10 7 9 6 20 -3 13 10 11 -4 13 9 1 9 5 9 7 7 7 7 8 7 8 11 11 10 10 11 10 11 10 8 7 8 9 3 28 27 39 28 14 20 4
15 10 7 2 5 -9 0 8 15 15 19 9 25 -5 11 8 14 12 8 8 7 7 9 10 10 9 9 10 10 10 9 8 7 7 4 4 27 29 36 18 12 13 10 13
-6 13 14 22 17 19 16 27 26 9 11 3 26 11 11 11 11 9 8 7 7 8 9 10 9 9 9 9 9 10 8 8 5 3 6 26 34 37 9 20 12 13 15 15
11 10 3 13 -3 15 18 18 30 36 21 13 10 -2 9 11 9 7 7 6 7 7 9 8 8 8 8 9 9 8 7 7 9 1 31 35 39 9 23 11 12 18 18 16
20 18 6 21 1 5 6 11 15 4 -2 4 9 2 10 10 9 5 5 7 7 7 8 7 9 8 8 6 7 7 8 10 -3 24 38 37 8 23 10 15 13 15 12 16
10 9 10 17 -10 -17 -40 7 12 14 17 15 4 3 13 11 8 7 9 7 7 8 7 9 7 6 6 6 7 8 9 5 4 34 37 17 18 8 9 6 9 15 16 20
9 24 6 11 5 8 6 -2 -6 1 6 5 9 14 10 9 7 8 8 7 8 8 8 6 7 7 5 6 8 10 10 0 17 40 33 6 23 11 6 4 10 13 16 20
17 15 6 5 25 15 17 2 15 5 5 9 6 9 11 11 10 4 8 8 8 7 6 6 6 6 5 6 7 9 8 -1 17 39 31 6 19 13 5 7 9 12 18 18
13 18 26 -1 13 15 19 18 -0 -5 -3 10 9 5 11 0 6 11 9 7 6 6 6 7 6 6 6 6 8 9 8 -4 14 36 32 5 17 16 10 11 10 12 18 17
20 4 9 18 14 7 20 11 1 14 7 13 13 9 11 9 8 8 7 6 5 6 6 6 6 6 6 6 9 9 6 5 7 36 35 3 13 14 13 9 10 13 18 17
24 11 11 5 14 1 18 12 16 11 13 8 10 9 9 9 7 8 8 6 5 6 6 6 6 6 7 7 8 10 5 7 6 34 35 -2 12 8 19 14 15 13 17 18
0 27 16 24 21 31 16 14 5 11 7 6 7 10 10 9 8 8 7 7 6 6 6 6 6 7 7 7 7 9 6 5 7 31 38 7 21 7 9 11 11 14 16 16
0 23 17 1 21 2 17 14 7 7 6 5 8 11 10 8 7 8 7 7 7 7 7 6 7 8 8 8 7 9 8 5 7 18 44 1 15 1 7 11 15 8 14 17
18 15 26 8 3 16 7 5 9 12 8 6 5 11 14 9 7 7 7 7 7 7 6 7 8 8 8 7 7 8 9 7 5 14 20 43 5 11 18 6 9 7 12 17
16 19 14 3 8 5 6 11 16 15 13 7 9 8 13 11 8 7 7 7 6 6 7 7 7 8 8 8 7 8 8 8 6 7 15 21 24 5 7 14 16 10 7 8
Height
3121 3124 3123 3121 3120 3120 3119 3118 3117 3115 3112 3111 3111 3110 3107 3104 3101 3098 3096 3093 3091 3091 3093 3095 3097 3098 3099 3098 3097 3096 3096 3095 3094 3091 3088 3084 3081 3078 3074 3069 3063 3059 3055 3052
3123 3122 3120 3119 3119 3119 3117 3116 3114 3113 3111 3109 3109 3109 3107 3102 3098 3096 3093 3090 3088 3088 3091 3095 3096 3096 3095 3095 3095 3094 3092 3090 3088 3085 3081 3078 3075 3071 3066 3061 3056 3051 3046 3041
3121 3120 3119 3119 3118 3117 3115 3114 3112 3111 3108 3107 3107 3107 3107 3105 3099 3095 3092 3089 3089 3091 3094 3095 3095 3094 3093 3094 3092 3090 3088 3085 3083 3079 3074 3070 3066 3060 3054 3049 3044 3038 3034 3030
3120 3119 3118 3118 3117 3114 3113 3109 3107 3106 3106 3102 3105 3100 3105 3106 3102 3097 3094 3092 3092 3094 3095 3095 3095 3092 3093 3091 3089 3087 3084 3081 3076 3072 3068 3063 3057 3051 3046 3039 3033 3027 3024 3019
3120 3118 3117 3116 3113 3111 3111 3106 3104 3103 3103 3104 3103 3102 3106 3106 3103 3100 3097 3096 3096 3096 3095 3095 3095 3093 3091 3089 3086 3083 3079 3076 3072 3067 3060 3054 3047 3040 3033 3026 3021 3016 3010 3007
3118 3116 3115 3113 3110 3108 3106 3104 3102 3100 3100 3099 3102 3102 3107 3106 3104 3102 3100 3098 3097 3096 3096 3095 3094 3092 3090 3086 3082 3078 3075 3070 3063 3057 3051 3043 3036 3030 3022 3017 3010 3004 2999 2994
3118 3116 3114 3113 3111 3109 3106 3103 3098 3098 3097 3099 3101 3102 3108 3107 3104 3103 3101 3099 3098 3097 3096 3095 3093 3091 3087 3083 3078 3074 3069 3063 3055 3049 3042 3034 3027 3019 3013 3007 2999 2993 2987 2982
3120 3117 3115 3113 3112 3110 3107 3105 3103 3099 3093 3096 3100 3105 3109 3107 3105 3103 3102 3101 3099 3098 3097 3095 3092 3088 3084 3079 3074 3068 3062 3056 3049 3041 3033 3026 3018 3010 3002 2995 2988 2982 2976 2971
3118 3119 3116 3114 3113 3111 3109 3107 3106 3104 3101 3099 3102 3107 3107 3108 3106 3105 3103 3102 3101 3099 3097 3094 3090 3086 3081 3075 3068 3062 3056 3049 3041 3034 3027 3019 3011 3002 2993 2985 2977 2967 2960 2952
3118 3119 3117 3116 3115 3114 3110 3109 3107 3106 3104 3101 3104 3105 3109 3110 3109 3106 3105 3103 3101 3099 3096 3092 3087 3082 3076 3070 3064 3057 3050 3043 3036 3028 3020 3011 3002 2992 2981 2970 2959 2949 2940 2933
3117 3119 3121 3118 3117 3116 3113 3110 3109 3109 3109 3105 3100 3110 3111 3111 3110 3108 3106 3104 3101 3099 3095 3090 3085 3080 3074 3068 3061 3055 3048 3040 3032 3023 3013 3003 2992 2980 2967 2955 2943 2934 2926 2920
3118 3119 3120 3120 3118 3116 3116 3112 3110 3110 3111 3108 3108 3113 3113 3112 3111 3109 3107 3105 3102 3098 3094 3089 3084 3078 3072 3066 3060 3053 3045 3037 3027 3017 3007 2995 2982 2967 2954 2943 2935 2928 2921 2916
3118 3120 3121 3120 3121 3119 3114 3112 3110 3110 3111 3111 3107 3115 3115 3114 3112 3110 3108 3105 3102 3098 3094 3089 3083 3077 3071 3066 3059 3052 3044 3034 3024 3013 3000 2985 2969 2956 2945 2937 2930 2925 2919 2912
3119 3120 3120 3121 3123 3121 3116 3112 3110 3111 3112 3114 3116 3117 3117 3116 3113 3111 3109 3107 3103 3100 3095 3090 3084 3078 3072 3065 3059 3051 3041 3031 3019 3006 2990 2974 2961 2950 2943 2935 2930 2923 2916 2908
3119 3122 3123 3122 3122 3120 3117 3115 3113 3112 3115 3117 3120 3118 3119 3117 3115 3113 3111 3108 3105 3100 3096 3090 3084 3078 3073 3066 3059 3050 3040 3028 3014 3000 2982 2966 2956 2949 2943 2937 2930 2923 2914 2905
3118 3123 3123 3124 3123 3122 3119 3119 3117 3116 3119 3121 3122 3120 3120 3119 3118 3115 3113 3110 3106 3101 3097 3091 3086 3080 3074 3066 3059 3049 3038 3026 3011 2993 2976 2965 2958 2952 2946 2939 2930 2921 2911 2903
3118 3120 3123 3125 3123 3123 3125 3124 3124 3123 3122 3123 3122 3123 3122 3122 3119 3117 3115 3111 3107 3103 3098 3093 3087 3082 3074 3067 3059 3050 3038 3025 3008 2990 2977 2968 2962 2956 2949 2941 2932 2922 2913 2903
3119 3119 3121 3123 3123 3124 3129 3128 3127 3128 3127 3125 3126 3125 3124 3123 3121 3119 3116 3113 3110 3105 3101 3096 3090 3084 3077 3068 3062 3052 3040 3026 3007 2992 2981 2973 2965 2959 2952 2944 2935 2925 2916 2906
3116 3118 3121 3121 3122 3128 3129 3130 3130 3129 3131 3129 3128 3127 3126 3124 3123 3121 3118 3116 3112 3107 3103 3098 3093 3086 3079 3071 3064 3053 3042 3027 3010 2996 2985 2977 2970 2964 2956 2949 2939 2930 2921 2910
3117 3118 3120 3119 3120 3125 3130 3130 3131 3131 3133 3131 3130 3129 3127 3126 3129 3124 3121 3118 3113 3110 3106 3101 3095 3090 3082 3074 3066 3056 3043 3029 3014 2998 2989 2983 2976 2969 2961 2954 2945 2937 2928 2919
3119 3119 3120 3118 3122 3128 3129 3131 3132 3135 3140 3132 3131 3130 3129 3128 3128 3126 3123 3120 3116 3113 3109 3104 3099 3093 3086 3077 3069 3060 3047 3033 3018 3005 2996 2991 2984 2976 2967 2961 2953 2944 2936 2928
3122 3122 3123 3123 3125 3132 3131 3132 3134 3135 3134 3133 3133 3132 3131 3130 3129 3127 3125 3122 3118 3116 3112 3108 3102 3097 3089 3082 3074 3065 3053 3039 3027 3013 3004 2997 2990 2983 2976 2969 2961 2954 2947 2939
3127 3126 3126 3127 3131 3131 3132 3133 3135 3135 3135 3135 3135 3134 3133 3132 3131 3130 3127 3125 3122 3119 3115 3110 3106 3100 3093 3086 3078 3070 3060 3048 3035 3021 3011 3004 2998 2992 2986 2980 2971 2965 2958 2952
3129 3127 3128 3130 3133 3134 3135 3136 3137 3137 3137 3137 3136 3135 3135 3134 3133 3132 3129 3127 3125 3122 3118 3114 3109 3104 3098 3091 3083 3076 3067 3057 3045 3032 3019 3012 3007 3001 2995 2990 2983 2976 2970 2965
3132 3131 3131 3134 3136 3137 3138 3139 3139 3139 3138 3139 3138 3137 3137 3136 3135 3134 3132 3130 3127 3125 3121 3117 3113 3108 3102 3096 3089 3083 3076 3066 3056 3044 3032 3022 3017 3011 3005 3000 2995 2988 2983 2979
3136 3135 3136 3138 3140 3140 3141 3140 3140 3139 3139 3140 3139 3139 3138 3138 3137 3136 3134 3132 3130 3127 3124 3121 3116 3112 3107 3101 3095 3090 3083 3075 3066 3056 3045 3036 3028 3020 3015 3010 3005 3001 2996 2993